{"data":{"norad_id":57712,"epoch":"2026-05-25T03:22:28.809408Z","epoch_age_seconds":65923,"freshness":"FRESH","line1":"1 57712U 23129Q   26145.14061122  .00032179  00000+0  11731-2 0  9990","line2":"2 57712  43.0023  46.2460 0001546 278.3976  81.6700 15.27600365152371","mean_motion":15.27600365,"eccentricity":0.0001546,"inclination_deg":43.0023,"raan_deg":46.246,"arg_perigee_deg":278.3976,"mean_anomaly_deg":81.67,"bstar":0.0011731,"rev_number":15237,"period_min":94.265492009096,"perigee_km":481.92738663782,"apogee_km":484.04884652386,"semimajor_km":6861.1251165808,"source":"CELESTRAK","updated_at":"2026-05-25T13:38:18.373508Z"}}